Other Public Products
Issued by NWS Grand Forks, ND

Home | Current Version | Previous Version | Text Only | Print | Product List | Glossary Off
Versions: 1 2 3 4 5 6 7 8 9 10 11 12 13 14 15 16 17 18 19 20 21 22 23 24 25 26 27 28 29 30 31 32 33 34 35 36 37 38 39 40 41 42 43 44 45 46 47 48 49 50

000
FPUS83 KFGF 200810
OPUFGF
PRAIRIE TO PINES WEATHER ROUNDUP
NATIONAL WEATHER SERVICE EASTERN NORTH DAKOTA/GRAND FORKS ND
300 AM CDT WED SEP 20 2017

 **SATELLITE DATA USED TO AUGMENT SKY COVER AT AUTOMATED STATIONS**
 *****  WEATHER ACROSS EASTERN NORTH DAKOTA  *****

CITY           SKY/WX    TMP DP  RH WIND       PRES   REMARKS
GRAND FORKS    MOCLDY    62  61  96 W8        29.41F
GRAND FORKS AF FAIR      59  59  99 W9        29.41F
GRAND CITY NWS NOT AVBL
BUXTON         NOT AVBL
DEVILS LAKE    CLOUDY    53  51  93 W18       29.51R
FARGO          MOCLDY    61  60  97 SW8       29.48S
WAHPETON ARPT  FAIR      59  55  88 S5        29.50R
$$

 *****  WEATHER ACROSS CENTRAL AND WESTERN NORTH DAKOTA  *****

CITY           SKY/WX    TMP DP  RH WIND       PRES   REMARKS
JAMESTOWN      FAIR      54  46  74 NW10      29.55R
BISMARCK       FAIR      49  44  83 W13       29.63R
MINOT          CLOUDY    52  47  83 SW10      29.55R
MINOT AFB      CLOUDY    49  46  91 W6        29.53R
GARRISON         N/A     46  41  82 W10       29.58R
WILLISTON      FAIR      44  40  85 SW9       29.59S
DICKINSON      FAIR      42  39  89 W13       29.62S
HETTINGER      FAIR      40  37  89 W6        29.69S
$$

 *****  OTHER OBSERVATIONS NORTHEAST NORTH DAKOTA  *****

CITY           SKY/WX    TMP DP  RH WIND       PRES   REMARKS
WALHALLA       FAIR     N/A N/A N/A W12       29.42R
LANGDON        CLOUDY    55  55 100 W15       29.45S
CAVALIER       FAIR      59  57  94 SW10      29.41R
GRAFTON        PTSUNNY   59  59 100 SW12      29.43R
CANDO          CLOUDY    52  52 100 W13G21    29.52R
FORT TOTTEN      N/A     52  51  97 W7        29.95S
ROLLA          CLOUDY    52  52 100 W13G20    29.49S
RUGBY          CLOUDY    50  50 100 W12       29.52S
 ***** THE ABOVE OBSERVATIONS ARE NON NWS ARE NOT QUALITY
        CONTROLLED AND MAY MIS-REPORT RAIN FOR SNOW...
$$

 *****  OTHER OBSERVATIONS SOUTHEAST NORTH DAKOTA *****

CITY           SKY/WX    TMP DP  RH WIND       PRES   REMARKS
COOPERSTOWN    FAIR      55  52  88 W22G29    29.51R
VALLEY CITY    CLOUDY    55  55 100 W20G25    29.54R
OAKES          NOT AVBL
GWINNER        SUNNY     59  57  94 W14       29.56R
BUFFALO        NOT AVBL
WYNDMERE       NOT AVBL
 ***** THE ABOVE OBSERVATIONS ARE NON NWS ARE NOT QUALITY
       CONTROLLED AND MAY MIS-REPORT RAIN FOR SNOW...
$$

  *****  WEATHER ACROSS NORTHERN MINNESOTA  *****

CITY           SKY/WX    TMP DP  RH WIND       PRES   REMARKS
FLAG ISLAND    FAIR      61  59  94 SE17      29.40F
WARROAD        LGT RAIN  61  57  88 SE9       29.44R
ROSEAU           N/A     63  57  82 S8        29.42F
HALLOCK        CLOUDY    63  61  94 S7        29.39F
THF RVR FALLS  CLOUDY    61  60  97 S5        29.45F
HALSTAD        NOT AVBL
FOSSTON        FAIR      57  57 100 SE3       29.48F
BAUDETTE       LGT RAIN  61  60  97 SE15      29.47F
WASKISH        LGT RAIN  61  61 100 E9        29.47F
CROOKSTON      CLOUDY    63  63 100 S8        29.43F
$$
  *****  WEATHER ACROSS CENTRAL AND WEST MINNESOTA  *****

CITY           SKY/WX    TMP DP  RH WIND       PRES   REMARKS
BEMIDJI        LGT RAIN  59  59  99 E7G17     29.44F
PARK RAPIDS    CLOUDY    62  60  93 SE10      29.53R
WADENA         CLOUDY    63  63 100 S13       29.55R
DETROIT LAKES  CLOUDY    61  61 100 CALM      29.51R FOG
MOORHEAD       FAIR      61  59  94 CALM      29.47S
FERGUS FALLS   FAIR      61  61 100 CALM      29.50R
ELBOW LAKE     CLOUDY    62  62  99 CALM      29.54S
MORRIS MN      FAIR      63  61  94 S3        29.54F
STAPLES        CLOUDY    61  61 100 S12       29.57R
WHEATON        MOCLDY    61  59  94 S3        29.54F
$$
  *****  WEATHER ELSEWHERE ACROSS MINNESOTA  *****

CITY           SKY/WX    TMP DP  RH WIND       PRES   REMARKS
DULUTH         MOCLDY    63  60  90 SE23G29   29.60F THUNDER
INTRNTL FALLS  TSTM      61  60  97 SE8       29.60R
ELY            FAIR      63  55  77 SE17G30   29.64F
CLOQUET        CLOUDY    66  57  72 SE10G21   29.57F THUNDER
BRAINERD       LGT RAIN  63  61  93 SW15      29.59R
HIBBING        RAIN      61  60  97 S8G20     29.68R FOG
ALEXANDRIA     CLOUDY    61  60  97 S9        29.58R
SAINT CLOUD    MOCLDY    63  63 100 SE7       29.57F
MINNEAPOLIS    CLOUDY    73  66  78 S10G23    29.62S THUNDER
$$

  *****  WEATHER ACROSS SOUTH DAKOTA  *****

CITY           SKY/WX    TMP DP  RH WIND       PRES   REMARKS
SIOUX FALLS    MOCLDY    60  60 100 CALM      29.66R
BROOKINGS      CLOUDY    59  56  89 S6        29.62S
WATERTOWN      CLOUDY    57  56  96 SW8       29.59R
HURON          FAIR      56  52  86 W13       29.68R
SISSETON         N/A     59  58  96 SW7       29.53R
ABERDEEN       FAIR      55  51  86 W12       29.64R
MITCHELL       FAIR      60  54  80 W8        29.70R
PIERRE         FAIR      53  45  74 NW12      29.69R
MOBRIDGE       FAIR      50  45  83 NW13      29.65R
RAPID CITY     NOT AVBL
$$

  *****  SOME WEATHER IN NEARBY STATES *****

CITY           SKY/WX    TMP DP  RH WIND       PRES   REMARKS
GLASGOW MT     FAIR      46  37  71 W6        29.57S
GREAT FALLS MT FAIR      44  29  55 SW21      29.61F
CHEYENNE WY    FAIR      44  29  55 W14G22    29.93R
SCOTTSBLUFF NE FAIR      54  32  43 W10       29.87R
OMAHA NE       MOCLDY    77  69  76 S7        29.63R
DES MOINES IA  FAIR      76  67  73 S16       29.68F
DAVENPORT IA   MOCLDY    68  63  84 SE9       29.85S
CHICAGO IL     FAIR      63  61  93 SE5       29.90S
EAU CLAIRE WI  FAIR      66  62  87 SE12      29.73F
LA CROSSE WI   MOCLDY    71  64  78 SE17      29.77F
$$

  *****  SOME NATIONAL WEATHER *****

CITY           SKY/WX    TMP DP  RH WIND       PRES   REMARKS
LA GUARDIA NY  MOCLDY    71  65  81 N12       29.79F
RALEIGH NC     FAIR      64  63  96 CALM      29.96S
ATLANTA GA     FAIR      71  68  90 NW6       30.00F
NEW ORLEANS LA FAIR      78  75  90 CALM      29.96S
OKLAHOMA CITY  FAIR      73  60  63 S10       29.79R
ALBUQUERQUE NM FAIR      69  36  29 SW15      30.02R
SALT LAKE CITY FAIR      51  43  74 SE3       29.94S
LOS ANGELES CA FAIR      66  62  87 CALM      29.88F
BOISE ID       CLOUDY    50  40  68 SE10      29.84F
SEATTLE WA     MOCLDY    52  46  80 E6        29.69F
$$

*** WEATHER ACROSS MANITOBA...SASKATCHEWAN AND ONTARIO ***
                ***ONTARIO***

CITY           SKY/WX    TMP DP  RH WIND       PRES   REMARKS
GERALDTON      CLEAR     48  46  93 E6        29.94F
THUNDER BAY    PTCLDY    57  55  94 E8        29.83F
SIOUX LOOKOUT  CLOUDY    59  54  82 SE8       29.67F
TORONTO        CLEAR     66  63  88 NE3       30.00S
BIG TROUT LK   CLOUDY    52  45  76 E9        29.89F
PICKLE LAKE    NOT AVBL
DRYDEN         RAIN      59  55  88 SE14G24   29.60F
KENORA         TSTM      59  59 100 SE21G31   29.44F
$$
                *** MANITOBA***

CITY           SKY/WX    TMP DP  RH WIND       PRES   REMARKS
BRANDON        CLOUDY    52  48  87 W14       29.41F
DAUPHIN        CLOUDY    54  48  82 W14G22    29.35S
ISLAND LAKE    NOT AVBL
PILOT MOUND      N/A     54  50  87 W8          N/A
THE PAS        RAIN      55  54  94 E12G24    29.28F
THOMPSON       CLOUDY    50  39  66 E13G25    29.66F
WINNIPEG       CLOUDY    61  61 100 SE12      29.34F
LYNN LAKE      LGT RAIN  45  43  93 E20G26    29.64F
CHURCHILL      MOCLDY    41  37  87 E12       30.07S
GILLAM         CLOUDY    45  39  81 E8        29.88F
$$
                ***SASKATCHEWAN***

CITY           SKY/WX    TMP DP  RH WIND       PRES   REMARKS
ESTEVAN        PTCLDY    48  43  81 SW9       29.53R
KINDERSLEY     CLEAR     34  32  93 SE8       29.46F
LLOYDMINSTER   CLEAR     32  30  93 W8        29.40F WCI  25
PRINCE ALBERT  CLOUDY    46  43  87 W12       29.35S
REGINA         CLOUDY    43  39  87 W7        29.49S
YORKTON        CLOUDY    48  45  87 SW9       29.40S
N. BATTLEFORD  CLEAR     32  30  93 SW7       29.44S


USA.gov is the U.S. government's official web portal to all federal, state and local government web resources and services.